Location: Ipswich
(52.0579°N, 1.1528°E)
Time: 21:30:35
(UTC+01:00)

ISS - Pass Details

Date: 16 May 2026
Orbit: 414 x 424 km, 51.6° (Epoch: 15 May)

Event Time Altitude Azimuth Distance (km) Brightness Sun altitude
Rises 23:56:31 0° 282° (WNW) 2,356 0.4 -17.9°
Reaches altitude 10° 23:58:41 10° 275° (W) 1,492 -0.8 -18.0°
Enters shadow 00:01:11 35° 235° (SW) 695 -2.9 -18.0°
